Location: Columbia
(38.9520°N, 92.3340°W)
Time: 04:57:59
(UTC-05:00)

Tiangong 1 - Visible Passes

Search period start: 21 August 2017 00:00
Search period end: 31 August 2017 00:00
Orbit: 312 x 337 km, 42.8° (Epoch: 20 August)

Date Brightness Start Highest point End Pass type
(mag) Time Alt. Az. Time Alt. Az. Time Alt. Az.
21 Aug 1.7 20:20:58 10° WNW 20:23:39 41° N 20:26:18 10° E visible
21 Aug 2.9 21:56:24 10° WNW 21:57:46 24° W 21:57:46 24° W visible
22 Aug 0.9 20:37:30 10° WNW 20:40:16 67° NNE 20:42:25 15° E visible
22 Aug 4.1 22:13:20 10° W 22:13:23 10° W 22:13:23 10° W visible
23 Aug 1.0 20:53:59 10° WNW 20:56:43 56° SSW 20:58:01 26° SE visible
24 Aug 2.4 21:10:40 10° W 21:12:58 23° SSW 21:13:35 21° S visible
27 Aug 3.6 20:25:05 10° WSW 20:26:01 11° SW 20:26:57 10° SSW visible
